$Date,$Time,DM0201B,DM0203B,DM0205B,DM0207B,DM0209B
02/04/99,00:00:01,71,14,-9,462,948
02/04/99,00:05:01,59,12,-9,496,948
02/04/99,00:10:01,69,16,-9,483,948
02/04/99,00:15:01,73,20,-9,483,948
02/04/99,00:20:01,74,19,-9,416,948
02/04/99,00:25:01,35,24,-9,181,948
02/04/99,00:30:01,61,23,-9,296,948
02/04/99,00:35:01,81,20,-9,518,948
02/04/99,00:40:01,61,33,-9,538,948
02/04/99,00:45:01,59,16,-9,278,948
02/04/99,00:50:01,67,31,-9,524,948
02/04/99,00:55:01,38,38,-9,512,948
02/04/99,01:00:01,10,5,-9,203,948
02/04/99,01:05:01,49,360,-9,201,948
02/04/99,01:10:01,25,244,-9,485,948
02/04/99,01:15:01,24,79,-9,294,948
02/04/99,01:20:01,47,39,-9,216,948
02/04/99,01:25:01,39,63,-9,210,948
02/04/99,01:30:01,63,11,-9,212,948
02/04/99,01:35:01,36,16,-9,210,948
02/04/99,01:40:01,51,22,-9,182,948
02/04/99,01:45:01,37,35,-9,155,948
02/04/99,01:50:01,43,24,-9,173,948
02/04/99,01:55:01,53,355,-9,171,948
02/04/99,02:00:01,52,1,-9,184,948
02/04/99,02:05:01,16,36,-9,206,948
02/04/99,02:10:01,33,18,-9,161,948
02/04/99,02:15:01,35,5,-9,159,948
02/04/99,02:20:01,25,356,-9,275,948
02/04/99,02:25:01,21,1,-9,234,948
02/04/99,02:30:01,33,357,-9,253,948
02/04/99,02:35:01,47,7,-9,204,948
02/04/99,02:40:01,54,14,-9,259,948
02/04/99,02:45:01,41,37,-9,267,948
02/04/99,02:50:01,24,44,-9,311,948
02/04/99,02:55:01,0,76,-7,279,948
02/04/99,03:00:01,49,173,-7,263,948
02/04/99,03:05:01,5,153,-7,322,948
02/04/99,03:10:01,10,126,-7,257,948
02/04/99,03:15:01,62,205,-7,211,948
02/04/99,03:20:01,40,159,-7,230,948
02/04/99,03:25:01,71,177,-7,242,948
02/04/99,03:30:01,68,184,-7,242,948
02/04/99,03:35:01,66,187,-9,278,948
02/04/99,03:40:01,36,176,-9,266,948
02/04/99,03:45:01,42,180,-9,257,948
02/04/99,03:50:01,44,171,-9,222,948
02/04/99,03:55:01,66,171,-9,251,948
02/04/99,04:00:01,76,168,-9,197,948
02/04/99,04:05:01,65,182,-9,257,948
02/04/99,04:10:01,41,171,-9,250,948
02/04/99,04:15:01,30,170,-9,255,948
02/04/99,04:20:01,22,171,-9,177,948
02/04/99,04:25:01,25,122,-9,196,948
02/04/99,04:30:01,34,153,-9,191,948
02/04/99,04:35:01,44,161,-9,143,948
02/04/99,04:40:01,57,174,-9,128,948
02/04/99,04:45:01,36,173,-9,133,948
02/04/99,04:50:01,43,177,-9,134,948
02/04/99,04:55:01,54,162,-9,134,948
02/04/99,05:00:01,62,172,-9,119,948
02/04/99,05:05:01,70,181,-9,117,948
02/04/99,05:10:01,66,172,-9,117,948
02/04/99,05:15:01,42,172,-9,119,948
02/04/99,05:20:01,60,172,-9,141,948
02/04/99,05:25:01,57,161,-9,244,948
02/04/99,05:30:01,66,161,-9,184,948
02/04/99,05:35:01,62,168,-9,146,948
02/04/99,05:40:01,57,168,-9,135,948
02/04/99,05:45:01,61,178,-9,121,948
02/04/99,05:50:01,69,177,-9,110,948
02/04/99,05:55:01,58,177,-9,101,948
02/04/99,06:00:01,48,179,-9,93,948
02/04/99,06:05:01,37,179,-9,89,948
02/04/99,06:10:01,37,179,-9,79,948
02/04/99,06:15:01,50,179,-9,75,948
02/04/99,06:20:01,61,190,-9,71,948
02/04/99,06:25:01,45,190,-11,65,948
02/04/99,06:30:01,45,190,-11,59,948
02/04/99,06:35:01,33,190,-11,57,948
02/04/99,06:40:01,33,201,-11,55,948
02/04/99,06:45:01,33,201,-11,55,948
02/04/99,06:50:01,33,201,-11,57,948
02/04/99,06:55:01,40,201,-11,53,948
02/04/99,07:00:01,38,219,-11,53,948
02/04/99,07:05:01,38,182,-11,53,948
02/04/99,07:10:01,7,182,-11,53,948
02/04/99,07:15:01,7,182,-11,53,948
02/04/99,07:20:01,26,213,-11,53,948
02/04/99,07:25:01,35,202,-11,55,948
02/04/99,07:30:01,24,176,-11,55,948
02/04/99,07:35:01,12,176,-11,53,948
02/04/99,07:40:01,26,160,-11,53,948
02/04/99,07:45:01,42,144,-11,55,948
02/04/99,07:50:01,40,157,-11,55,948
02/04/99,07:55:01,38,138,-11,55,948
02/04/99,08:00:01,88,125,-11,55,948
02/04/99,08:05:01,55,131,-11,55,948
02/04/99,08:10:01,93,139,-11,57,948
02/04/99,08:15:01,72,162,-11,57,948
02/04/99,08:20:01,89,155,-11,61,948
02/04/99,08:25:01,71,181,-11,71,948
02/04/99,08:30:01,82,161,-11,71,948
02/04/99,08:35:01,48,168,-11,71,948
02/04/99,08:40:01,80,166,-11,67,948
02/04/99,08:45:01,83,127,-11,65,948
02/04/99,08:50:01,45,208,-11,65,948
02/04/99,08:55:01,63,178,-11,63,948
02/04/99,09:00:01,85,133,-11,61,948
02/04/99,09:05:01,25,156,-11,57,948
02/04/99,09:10:01,66,179,-11,59,948
02/04/99,09:15:01,125,123,-11,57,948
02/04/99,09:20:01,78,146,-11,65,948
02/04/99,09:25:01,203,127,-11,73,948
02/04/99,09:30:01,135,130,-11,67,948
02/04/99,09:35:01,115,128,-11,65,948
02/04/99,09:40:01,73,132,-11,65,948
02/04/99,09:45:01,125,131,-11,74,948
02/04/99,09:50:01,242,133,-11,74,948
02/04/99,09:55:01,204,128,-11,65,948
02/04/99,10:00:01,178,122,-11,54,948
02/04/99,10:05:01,159,122,-11,42,948
02/04/99,10:10:01,172,125,-11,30,948
02/04/99,10:15:01,184,127,-11,24,948
02/04/99,10:20:01,145,103,-11,20,948
02/04/99,10:25:01,254,93,-11,20,948
02/04/99,10:30:01,190,93,-11,18,948
02/04/99,10:35:01,115,113,-11,16,948
02/04/99,10:40:01,54,102,-11,16,948
02/04/99,10:45:01,208,137,-11,16,948
02/04/99,10:50:01,208,129,-11,18,948
02/04/99,10:55:01,107,143,-11,18,948
02/04/99,11:00:01,83,161,-11,16,950
02/04/99,11:05:01,161,160,-11,14,950
02/04/99,11:10:01,182,158,-11,14,950
02/04/99,11:15:01,210,179,-11,14,950
02/04/99,11:20:01,223,176,-11,14,950
02/04/99,11:25:01,236,166,-11,14,950
02/04/99,11:30:01,208,166,-11,14,950
02/04/99,11:35:01,267,173,-11,14,950
02/04/99,11:40:01,245,173,-11,14,950
02/04/99,11:45:01,299,173,-11,14,950
02/04/99,11:50:01,342,185,-13,14,950
02/04/99,11:55:01,342,179,-13,12,950
02/04/99,12:00:01,379,180,-13,12,950
02/04/99,12:05:01,373,179,-13,12,950
02/04/99,12:10:01,414,169,-13,12,950
02/04/99,12:15:01,334,180,-13,12,950
02/04/99,12:20:01,382,180,-13,12,950
02/04/99,12:25:01,344,180,-13,12,950
02/04/99,12:30:01,400,169,-13,12,950
02/04/99,12:35:01,310,169,-13,12,950
02/04/99,12:40:01,337,180,-13,12,950
02/04/99,12:45:01,395,166,-13,12,950
02/04/99,12:50:01,425,162,-13,12,950
02/04/99,12:55:01,384,161,-13,12,950
02/04/99,13:00:01,374,171,-13,12,950
02/04/99,13:05:01,347,171,-13,12,950
02/04/99,13:10:01,345,159,-13,12,950
02/04/99,13:15:01,411,160,-13,12,950
02/04/99,13:20:01,408,161,-13,12,950
02/04/99,13:25:01,296,160,-13,12,950
02/04/99,13:30:01,390,159,-13,12,950
02/04/99,13:35:01,433,165,-13,12,950
02/04/99,13:40:01,363,165,-13,12,952
02/04/99,13:45:01,434,165,-13,12,952
02/04/99,13:50:01,397,165,-13,10,952
02/04/99,13:55:01,388,165,-13,10,952
02/04/99,14:00:01,281,180,-13,10,952
02/04/99,14:05:01,314,175,-13,10,952
02/04/99,14:10:01,356,168,-13,10,952
02/04/99,14:15:01,446,168,-13,10,952
02/04/99,14:20:01,405,168,-13,10,952
02/04/99,14:25:01,319,166,-13,10,952
02/04/99,14:30:01,339,167,-13,10,952
02/04/99,14:35:01,443,167,-13,14,952
02/04/99,14:40:01,493,159,-13,16,952
02/04/99,14:45:01,307,159,-13,20,952
02/04/99,14:50:01,423,170,-13,22,952
02/04/99,14:55:01,349,168,-13,22,952
02/04/99,15:00:01,419,171,-13,24,952
02/04/99,15:05:01,373,161,-13,24,952
02/04/99,15:10:01,464,163,-13,26,952
02/04/99,15:15:01,401,163,-13,26,952
02/04/99,15:20:01,386,163,-13,26,952
02/04/99,15:25:01,456,174,-13,26,952
02/04/99,15:30:01,448,169,-13,26,952
02/04/99,15:35:01,355,152,-13,26,952
02/04/99,15:40:01,354,160,-13,26,952
02/04/99,15:45:01,337,171,-13,28,952
02/04/99,15:50:01,329,169,-13,28,952
02/04/99,15:55:01,340,169,-13,28,952
02/04/99,16:00:01,423,169,-13,28,952
02/04/99,16:05:01,365,169,-13,30,952
02/04/99,16:10:01,328,170,-13,28,952
02/04/99,16:15:01,307,166,-13,28,954
02/04/99,16:20:01,326,164,-13,28,954
02/04/99,16:25:01,356,164,-13,28,954
02/04/99,16:30:01,410,164,-13,28,954
02/04/99,16:35:01,339,162,-13,30,954
02/04/99,16:40:01,388,160,-13,30,954
02/04/99,16:45:01,338,164,-13,32,954
02/04/99,16:50:01,385,164,-13,30,954
02/04/99,16:55:01,410,164,-13,34,954
02/04/99,17:00:01,401,164,-13,36,954
02/04/99,17:05:01,284,164,-13,36,954
02/04/99,17:10:01,391,164,-13,40,954
02/04/99,17:15:01,432,165,-13,42,954
02/04/99,17:20:01,350,165,-13,44,954
02/04/99,17:25:01,277,176,-13,46,954
02/04/99,17:30:01,324,171,-13,48,954
02/04/99,17:35:01,409,167,-13,52,954
02/04/99,17:40:01,425,155,-13,58,954
02/04/99,17:45:01,367,165,-13,56,954
02/04/99,17:50:01,328,164,-13,58,954
02/04/99,17:55:01,421,160,-13,58,954
02/04/99,18:00:01,389,160,-13,62,954
02/04/99,18:05:01,288,160,-13,64,954
02/04/99,18:10:01,383,172,-13,70,954
02/04/99,18:15:01,388,169,-13,72,954
02/04/99,18:20:01,275,170,-13,72,954
02/04/99,18:25:01,386,166,-13,72,954
02/04/99,18:30:01,398,166,-13,72,954
02/04/99,18:35:01,418,166,-13,72,954
02/04/99,18:40:01,356,172,-13,74,954
02/04/99,18:45:01,390,169,-13,74,954
02/04/99,18:50:01,364,169,-13,76,956
02/04/99,18:55:01,382,179,-13,78,956
02/04/99,19:00:01,338,164,-13,80,956
02/04/99,19:05:01,340,167,-13,82,956
02/04/99,19:10:01,394,167,-13,84,956
02/04/99,19:15:01,359,165,-13,86,956
02/04/99,19:20:01,357,165,-13,88,956
02/04/99,19:25:01,416,176,-13,92,956
02/04/99,19:30:01,348,177,-13,96,956
02/04/99,19:35:01,352,165,-13,102,956
02/04/99,19:40:01,350,165,-13,108,956
02/04/99,19:45:01,332,180,-13,110,956
02/04/99,19:50:01,352,160,-13,110,956
02/04/99,19:55:01,320,173,-13,110,956
02/04/99,20:00:01,327,172,-13,112,956
02/04/99,20:05:01,358,172,-13,118,956
02/04/99,20:10:01,338,172,-13,120,956
02/04/99,20:15:01,361,172,-13,128,956
02/04/99,20:20:01,261,173,-13,136,956
02/04/99,20:25:01,383,173,-13,144,956
02/04/99,20:30:01,359,174,-13,152,956
02/04/99,20:35:01,311,174,-13,160,956
02/04/99,20:40:01,327,174,-13,174,956
02/04/99,20:45:01,316,174,-13,188,956
02/04/99,20:50:01,336,174,-13,192,958
02/04/99,20:55:01,348,177,-13,194,958
02/04/99,21:00:01,357,177,-13,194,958
02/04/99,21:05:01,360,177,-13,190,958
02/04/99,21:10:01,313,167,-13,190,958
02/04/99,21:15:01,345,167,-13,200,958
02/04/99,21:20:01,350,167,-13,212,958
02/04/99,21:25:01,324,169,-13,218,958
02/04/99,21:30:01,357,169,-11,218,958
02/04/99,21:35:01,341,169,-11,222,958
02/04/99,21:40:01,312,167,-11,228,958
02/04/99,21:45:01,338,166,-11,230,958
02/04/99,21:50:01,318,175,-11,230,958
02/04/99,21:55:01,310,169,-11,234,958
02/04/99,22:00:01,328,169,-11,238,958
02/04/99,22:05:01,350,169,-11,242,958
02/04/99,22:10:01,376,169,-11,244,958
02/04/99,22:15:01,338,168,-11,248,958
02/04/99,22:20:01,332,168,-11,246,958
02/04/99,22:25:01,328,168,-11,246,958
02/04/99,22:30:01,309,168,-11,244,958
02/04/99,22:35:01,363,168,-11,246,958
02/04/99,22:40:01,368,168,-11,250,958
02/04/99,22:45:01,346,168,-11,252,958
02/04/99,22:50:01,334,168,-11,256,958
02/04/99,22:55:01,336,168,-11,273,958
02/04/99,23:00:01,371,168,-11,281,958
02/04/99,23:05:01,361,170,-11,281,960
02/04/99,23:10:01,311,160,-11,283,960
02/04/99,23:15:01,339,171,-11,285,960
02/04/99,23:20:01,359,172,-11,287,960
02/04/99,23:25:01,344,173,-11,283,960
02/04/99,23:30:01,378,163,-11,287,960
02/04/99,23:35:01,384,173,-11,293,960
02/04/99,23:40:01,247,162,-11,301,960
02/04/99,23:45:01,299,162,-11,303,960
02/04/99,23:50:01,350,165,-11,303,960
02/04/99,23:55:01,306,165,-11,307,960
02/05/99,00:00:01,290,165,-11,330,960
